owner,sensor,date,latitude,longitude,vertical_datum,sea_water_practical_salinity,qcFlag 
WAVCIS,ioos:station:WAVCIS:CSI16:1,2009-07-01T00:00:00Z,29.4012,-89.0355,1.0,26.367,11111222 
WAVCIS,ioos:station:WAVCIS:CSI16:1,2009-07-01T00:15:00Z,29.4012,-89.0355,1.0,26.084,11111222 
WAVCIS,ioos:station:WAVCIS:CSI16:1,2009-07-01T00:30:00Z,29.4012,-89.0355,1.0,26.071,11111222 
WAVCIS,ioos:station:WAVCIS:CSI16:1,2009-07-01T00:45:00Z,29.4012,-89.0355,1.0,29.394,11111222 
WAVCIS,ioos:station:WAVCIS:CSI16:1,2009-07-01T01:00:00Z,29.4012,-89.0355,1.0,29.068,11111222 
WAVCIS,ioos:station:WAVCIS:CSI16:1,2009-07-01T01:15:00Z,29.4012,-89.0355,1.0,29.25,11111222 
WAVCIS,ioos:station:WAVCIS:CSI16:1,2009-07-01T01:30:00Z,29.4012,-89.0355,1.0,29.454,11111222 
WAVCIS,ioos:station:WAVCIS:CSI16:1,2009-07-01T01:45:00Z,29.4012,-89.0355,1.0,29.499,11111222 
WAVCIS,ioos:station:WAVCIS:CSI16:1,2009-07-01T02:00:00Z,29.4012,-89.0355,1.0,29.652,11111222 
WAVCIS,ioos:station:WAVCIS:CSI16:1,2009-07-01T02:15:00Z,29.4012,-89.0355,1.0,29.216,11111222 
WAVCIS,ioos:station:WAVCIS:CSI16:1,2009-07-01T02:30:00Z,29.4012,-89.0355,1.0,28.778,11111222 
WAVCIS,ioos:station:WAVCIS:CSI16:1,2009-07-01T02:45:00Z,29.4012,-89.0355,1.0,28.676,11111222 
WAVCIS,ioos:station:WAVCIS:CSI16:1,2009-07-01T03:00:00Z,29.4012,-89.0355,1.0,28.428,11111222 
WAVCIS,ioos:station:WAVCIS:CSI16:1,2009-07-01T03:15:00Z,29.4012,-89.0355,1.0,26.915,11111222 
WAVCIS,ioos:station:WAVCIS:CSI16:1,2009-07-01T03:30:00Z,29.4012,-89.0355,1.0,26.653,11111222 
WAVCIS,ioos:station:WAVCIS:CSI16:1,2009-07-01T03:45:00Z,29.4012,-89.0355,1.0,27.0,11111222 
WAVCIS,ioos:station:WAVCIS:CSI16:1,2009-07-01T04:00:00Z,29.4012,-89.0355,1.0,27.298,11111222 
WAVCIS,ioos:station:WAVCIS:CSI16:1,2009-07-01T04:15:00Z,29.4012,-89.0355,1.0,27.485,11111222 
WAVCIS,ioos:station:WAVCIS:CSI16:1,2009-07-01T04:30:00Z,29.4012,-89.0355,1.0,27.463,11111222 
WAVCIS,ioos:station:WAVCIS:CSI16:1,2009-07-01T04:45:00Z,29.4012,-89.0355,1.0,28.056,11111222 
WAVCIS,ioos:station:WAVCIS:CSI16:1,2009-07-01T05:00:00Z,29.4012,-89.0355,1.0,29.766,11111222 
WAVCIS,ioos:station:WAVCIS:CSI16:1,2009-07-01T05:15:00Z,29.4012,-89.0355,1.0,28.814,11111222 
WAVCIS,ioos:station:WAVCIS:CSI16:1,2009-07-01T05:30:00Z,29.4012,-89.0355,1.0,29.032,11111222 
WAVCIS,ioos:station:WAVCIS:CSI16:1,2009-07-01T05:45:00Z,29.4012,-89.0355,1.0,29.695,11111222 
WAVCIS,ioos:station:WAVCIS:CSI16:1,2009-07-01T06:00:00Z,29.4012,-89.0355,1.0,29.485,11111222 
WAVCIS,ioos:station:WAVCIS:CSI16:1,2009-07-01T06:15:00Z,29.4012,-89.0355,1.0,29.939,11111222 
WAVCIS,ioos:station:WAVCIS:CSI16:1,2009-07-01T06:30:00Z,29.4012,-89.0355,1.0,29.537,11111222 
WAVCIS,ioos:station:WAVCIS:CSI16:1,2009-07-01T06:45:00Z,29.4012,-89.0355,1.0,29.299,11111222 
WAVCIS,ioos:station:WAVCIS:CSI16:1,2009-07-01T07:00:00Z,29.4012,-89.0355,1.0,30.172,11111222 
WAVCIS,ioos:station:WAVCIS:CSI16:1,2009-07-01T07:15:00Z,29.4012,-89.0355,1.0,29.19,11111222 
WAVCIS,ioos:station:WAVCIS:CSI16:1,2009-07-01T07:30:00Z,29.4012,-89.0355,1.0,29.285,11111222 
WAVCIS,ioos:station:WAVCIS:CSI16:1,2009-07-01T07:45:00Z,29.4012,-89.0355,1.0,29.138,11111222 
WAVCIS,ioos:station:WAVCIS:CSI16:1,2009-07-01T08:00:00Z,29.4012,-89.0355,1.0,27.28,11111222 
WAVCIS,ioos:station:WAVCIS:CSI16:1,2009-07-01T08:15:00Z,29.4012,-89.0355,1.0,28.487,11111222 
WAVCIS,ioos:station:WAVCIS:CSI16:1,2009-07-01T08:30:00Z,29.4012,-89.0355,1.0,26.302,11111222 
WAVCIS,ioos:station:WAVCIS:CSI16:1,2009-07-01T08:45:00Z,29.4012,-89.0355,1.0,26.908,11111222 
WAVCIS,ioos:station:WAVCIS:CSI16:1,2009-07-01T09:00:00Z,29.4012,-89.0355,1.0,26.631,11111222 
WAVCIS,ioos:station:WAVCIS:CSI16:1,2009-07-01T09:15:00Z,29.4012,-89.0355,1.0,27.011,11111222 
WAVCIS,ioos:station:WAVCIS:CSI16:1,2009-07-01T09:30:00Z,29.4012,-89.0355,1.0,27.349,11111222 
WAVCIS,ioos:station:WAVCIS:CSI16:1,2009-07-01T09:45:00Z,29.4012,-89.0355,1.0,30.477,11111222 
WAVCIS,ioos:station:WAVCIS:CSI16:1,2009-07-01T10:00:00Z,29.4012,-89.0355,1.0,29.995,11111222 
WAVCIS,ioos:station:WAVCIS:CSI16:1,2009-07-01T10:15:00Z,29.4012,-89.0355,1.0,32.194,11111222 
WAVCIS,ioos:station:WAVCIS:CSI16:1,2009-07-01T10:30:00Z,29.4012,-89.0355,1.0,28.538,11111222 
WAVCIS,ioos:station:WAVCIS:CSI16:1,2009-07-01T10:45:00Z,29.4012,-89.0355,1.0,30.277,11111222 
WAVCIS,ioos:station:WAVCIS:CSI16:1,2009-07-01T11:00:00Z,29.4012,-89.0355,1.0,30.501,11111222 
WAVCIS,ioos:station:WAVCIS:CSI16:1,2009-07-01T11:15:00Z,29.4012,-89.0355,1.0,30.325,11111222 
WAVCIS,ioos:station:WAVCIS:CSI16:1,2009-07-01T11:30:00Z,29.4012,-89.0355,1.0,30.924,11111222 
WAVCIS,ioos:station:WAVCIS:CSI16:1,2009-07-01T11:45:00Z,29.4012,-89.0355,1.0,31.389,11111222 
WAVCIS,ioos:station:WAVCIS:CSI16:1,2009-07-01T12:00:00Z,29.4012,-89.0355,1.0,31.223,11111222 
WAVCIS,ioos:station:WAVCIS:CSI16:1,2009-07-01T12:15:00Z,29.4012,-89.0355,1.0,33.709,11111222 
WAVCIS,ioos:station:WAVCIS:CSI16:1,2009-07-01T12:30:00Z,29.4012,-89.0355,1.0,31.855,11111222 
WAVCIS,ioos:station:WAVCIS:CSI16:1,2009-07-01T12:45:00Z,29.4012,-89.0355,1.0,33.222,11111222 
WAVCIS,ioos:station:WAVCIS:CSI16:1,2009-07-01T13:00:00Z,29.4012,-89.0355,1.0,32.722,11111222 
WAVCIS,ioos:station:WAVCIS:CSI16:1,2009-07-01T13:15:00Z,29.4012,-89.0355,1.0,30.052,11111222 
WAVCIS,ioos:station:WAVCIS:CSI16:1,2009-07-01T13:30:00Z,29.4012,-89.0355,1.0,29.869,11111222 
WAVCIS,ioos:station:WAVCIS:CSI16:1,2009-07-01T13:45:00Z,29.4012,-89.0355,1.0,30.309,11111222 
WAVCIS,ioos:station:WAVCIS:CSI16:1,2009-07-01T14:00:00Z,29.4012,-89.0355,1.0,29.558,11111222 
WAVCIS,ioos:station:WAVCIS:CSI16:1,2009-07-01T14:15:00Z,29.4012,-89.0355,1.0,29.454,11111222 
WAVCIS,ioos:station:WAVCIS:CSI16:1,2009-07-01T14:30:00Z,29.4012,-89.0355,1.0,29.239,11111222 
WAVCIS,ioos:station:WAVCIS:CSI16:1,2009-07-01T14:45:00Z,29.4012,-89.0355,1.0,29.304,11111222 
WAVCIS,ioos:station:WAVCIS:CSI16:1,2009-07-01T15:00:00Z,29.4012,-89.0355,1.0,28.519,11111222 
WAVCIS,ioos:station:WAVCIS:CSI16:1,2009-07-01T15:15:00Z,29.4012,-89.0355,1.0,27.947,11111222 
WAVCIS,ioos:station:WAVCIS:CSI16:1,2009-07-01T15:30:00Z,29.4012,-89.0355,1.0,27.136,11111222 
WAVCIS,ioos:station:WAVCIS:CSI16:1,2009-07-01T15:45:00Z,29.4012,-89.0355,1.0,27.454,11111222 
WAVCIS,ioos:station:WAVCIS:CSI16:1,2009-07-01T16:00:00Z,29.4012,-89.0355,1.0,27.437,11111222 
WAVCIS,ioos:station:WAVCIS:CSI16:1,2009-07-01T16:15:00Z,29.4012,-89.0355,1.0,27.353,11111222 
WAVCIS,ioos:station:WAVCIS:CSI16:1,2009-07-01T16:30:00Z,29.4012,-89.0355,1.0,26.821,11111222 
WAVCIS,ioos:station:WAVCIS:CSI16:1,2009-07-01T16:45:00Z,29.4012,-89.0355,1.0,27.138,11111222 
WAVCIS,ioos:station:WAVCIS:CSI16:1,2009-07-01T17:00:00Z,29.4012,-89.0355,1.0,27.534,11111222 
WAVCIS,ioos:station:WAVCIS:CSI16:1,2009-07-01T17:15:00Z,29.4012,-89.0355,1.0,26.979,11111222 
WAVCIS,ioos:station:WAVCIS:CSI16:1,2009-07-01T17:30:00Z,29.4012,-89.0355,1.0,27.298,11111222 
WAVCIS,ioos:station:WAVCIS:CSI16:1,2009-07-01T17:45:00Z,29.4012,-89.0355,1.0,26.906,11111222 
WAVCIS,ioos:station:WAVCIS:CSI16:1,2009-07-01T18:00:00Z,29.4012,-89.0355,1.0,26.228,11111222 
WAVCIS,ioos:station:WAVCIS:CSI16:1,2009-07-01T18:15:00Z,29.4012,-89.0355,1.0,26.246,11111222 
WAVCIS,ioos:station:WAVCIS:CSI16:1,2009-07-01T18:30:00Z,29.4012,-89.0355,1.0,24.863,11111222 
WAVCIS,ioos:station:WAVCIS:CSI16:1,2009-07-01T18:45:00Z,29.4012,-89.0355,1.0,23.975,11111222 
WAVCIS,ioos:station:WAVCIS:CSI16:1,2009-07-01T19:00:00Z,29.4012,-89.0355,1.0,23.829,11111222 
WAVCIS,ioos:station:WAVCIS:CSI16:1,2009-07-01T19:15:00Z,29.4012,-89.0355,1.0,21.981,11111222 
WAVCIS,ioos:station:WAVCIS:CSI16:1,2009-07-01T19:30:00Z,29.4012,-89.0355,1.0,23.682,11111222 
WAVCIS,ioos:station:WAVCIS:CSI16:1,2009-07-01T19:45:00Z,29.4012,-89.0355,1.0,24.973,11111222 
WAVCIS,ioos:station:WAVCIS:CSI16:1,2009-07-01T20:00:00Z,29.4012,-89.0355,1.0,26.217,11111222 
WAVCIS,ioos:station:WAVCIS:CSI16:1,2009-07-01T20:15:00Z,29.4012,-89.0355,1.0,26.628,11111222 
WAVCIS,ioos:station:WAVCIS:CSI16:1,2009-07-01T20:30:00Z,29.4012,-89.0355,1.0,27.028,11111222 
WAVCIS,ioos:station:WAVCIS:CSI16:1,2009-07-01T20:45:00Z,29.4012,-89.0355,1.0,27.472,11111222 
WAVCIS,ioos:station:WAVCIS:CSI16:1,2009-07-01T21:00:00Z,29.4012,-89.0355,1.0,27.516,11111222 
WAVCIS,ioos:station:WAVCIS:CSI16:1,2009-07-01T21:15:00Z,29.4012,-89.0355,1.0,27.586,11111222 
WAVCIS,ioos:station:WAVCIS:CSI16:1,2009-07-01T21:30:00Z,29.4012,-89.0355,1.0,27.781,11111222 
WAVCIS,ioos:station:WAVCIS:CSI16:1,2009-07-01T21:45:00Z,29.4012,-89.0355,1.0,28.118,11111222 
WAVCIS,ioos:station:WAVCIS:CSI16:1,2009-07-01T22:00:00Z,29.4012,-89.0355,1.0,28.396,11111222 
WAVCIS,ioos:station:WAVCIS:CSI16:1,2009-07-01T22:15:00Z,29.4012,-89.0355,1.0,28.633,11111222 
WAVCIS,ioos:station:WAVCIS:CSI16:1,2009-07-01T22:30:00Z,29.4012,-89.0355,1.0,28.649,11111222 
WAVCIS,ioos:station:WAVCIS:CSI16:1,2009-07-01T22:45:00Z,29.4012,-89.0355,1.0,28.161,11111222 
WAVCIS,ioos:station:WAVCIS:CSI16:1,2009-07-01T23:00:00Z,29.4012,-89.0355,1.0,28.373,11111222 
WAVCIS,ioos:station:WAVCIS:CSI16:1,2009-07-01T23:15:00Z,29.4012,-89.0355,1.0,27.93,11111222 
WAVCIS,ioos:station:WAVCIS:CSI16:1,2009-07-01T23:30:00Z,29.4012,-89.0355,1.0,27.582,11111222 
WAVCIS,ioos:station:WAVCIS:CSI16:1,2009-07-01T23:45:00Z,29.4012,-89.0355,1.0,27.069,11111222 
WAVCIS,ioos:station:WAVCIS:CSI16:1,2009-07-02T00:00:00Z,29.4012,-89.0355,1.0,26.788,11111222 
WAVCIS,ioos:station:WAVCIS:CSI16:1,2009-07-02T00:15:00Z,29.4012,-89.0355,1.0,26.901,11111222 
WAVCIS,ioos:station:WAVCIS:CSI16:1,2009-07-02T00:30:00Z,29.4012,-89.0355,1.0,27.125,11111222 
WAVCIS,ioos:station:WAVCIS:CSI16:1,2009-07-02T00:45:00Z,29.4012,-89.0355,1.0,27.083,11111222 
WAVCIS,ioos:station:WAVCIS:CSI16:1,2009-07-02T01:00:00Z,29.4012,-89.0355,1.0,27.223,11111222 
WAVCIS,ioos:station:WAVCIS:CSI16:1,2009-07-02T01:15:00Z,29.4012,-89.0355,1.0,27.759,11111222 
WAVCIS,ioos:station:WAVCIS:CSI16:1,2009-07-02T01:30:00Z,29.4012,-89.0355,1.0,27.861,11111222 
WAVCIS,ioos:station:WAVCIS:CSI16:1,2009-07-02T01:45:00Z,29.4012,-89.0355,1.0,28.078,11111222 
WAVCIS,ioos:station:WAVCIS:CSI16:1,2009-07-02T02:00:00Z,29.4012,-89.0355,1.0,28.694,11111222 
WAVCIS,ioos:station:WAVCIS:CSI16:1,2009-07-02T02:15:00Z,29.4012,-89.0355,1.0,28.218,11111222 
WAVCIS,ioos:station:WAVCIS:CSI16:1,2009-07-02T02:30:00Z,29.4012,-89.0355,1.0,26.164,11111222 
WAVCIS,ioos:station:WAVCIS:CSI16:1,2009-07-02T02:45:00Z,29.4012,-89.0355,1.0,27.588,11111222 
WAVCIS,ioos:station:WAVCIS:CSI16:1,2009-07-02T03:00:00Z,29.4012,-89.0355,1.0,24.609,11111222 
WAVCIS,ioos:station:WAVCIS:CSI16:1,2009-07-02T03:15:00Z,29.4012,-89.0355,1.0,23.317,11111222 
WAVCIS,ioos:station:WAVCIS:CSI16:1,2009-07-02T03:30:00Z,29.4012,-89.0355,1.0,24.119,11111222 
WAVCIS,ioos:station:WAVCIS:CSI16:1,2009-07-02T03:45:00Z,29.4012,-89.0355,1.0,23.962,11111222 
WAVCIS,ioos:station:WAVCIS:CSI16:1,2009-07-02T04:00:00Z,29.4012,-89.0355,1.0,26.702,11111222 
WAVCIS,ioos:station:WAVCIS:CSI16:1,2009-07-02T04:15:00Z,29.4012,-89.0355,1.0,27.953,11111222 
WAVCIS,ioos:station:WAVCIS:CSI16:1,2009-07-02T04:30:00Z,29.4012,-89.0355,1.0,26.365,11111222 
WAVCIS,ioos:station:WAVCIS:CSI16:1,2009-07-02T04:45:00Z,29.4012,-89.0355,1.0,25.339,11111222 
WAVCIS,ioos:station:WAVCIS:CSI16:1,2009-07-02T05:00:00Z,29.4012,-89.0355,1.0,23.28,11111222 
WAVCIS,ioos:station:WAVCIS:CSI16:1,2009-07-02T05:15:00Z,29.4012,-89.0355,1.0,24.934,11111222 
WAVCIS,ioos:station:WAVCIS:CSI16:1,2009-07-02T05:30:00Z,29.4012,-89.0355,1.0,27.643,11111222 
WAVCIS,ioos:station:WAVCIS:CSI16:1,2009-07-02T05:45:00Z,29.4012,-89.0355,1.0,24.526,11111222 
WAVCIS,ioos:station:WAVCIS:CSI16:1,2009-07-02T06:00:00Z,29.4012,-89.0355,1.0,24.762,11111222 
WAVCIS,ioos:station:WAVCIS:CSI16:1,2009-07-02T06:15:00Z,29.4012,-89.0355,1.0,31.343,11111222 
WAVCIS,ioos:station:WAVCIS:CSI16:1,2009-07-02T06:30:00Z,29.4012,-89.0355,1.0,30.925,11111222 
WAVCIS,ioos:station:WAVCIS:CSI16:1,2009-07-02T06:45:00Z,29.4012,-89.0355,1.0,32.063,11111222 
WAVCIS,ioos:station:WAVCIS:CSI16:1,2009-07-02T07:00:00Z,29.4012,-89.0355,1.0,32.112,11111222 
WAVCIS,ioos:station:WAVCIS:CSI16:1,2009-07-02T07:15:00Z,29.4012,-89.0355,1.0,32.631,11111222 
WAVCIS,ioos:station:WAVCIS:CSI16:1,2009-07-02T07:30:00Z,29.4012,-89.0355,1.0,32.111,11111222 
WAVCIS,ioos:station:WAVCIS:CSI16:1,2009-07-02T07:45:00Z,29.4012,-89.0355,1.0,33.217,11111222 
WAVCIS,ioos:station:WAVCIS:CSI16:1,2009-07-02T08:00:00Z,29.4012,-89.0355,1.0,32.902,11111222 
WAVCIS,ioos:station:WAVCIS:CSI16:1,2009-07-02T08:15:00Z,29.4012,-89.0355,1.0,33.088,11111222 
WAVCIS,ioos:station:WAVCIS:CSI16:1,2009-07-02T08:30:00Z,29.4012,-89.0355,1.0,33.144,11111222 
WAVCIS,ioos:station:WAVCIS:CSI16:1,2009-07-02T08:45:00Z,29.4012,-89.0355,1.0,33.511,11111222 
WAVCIS,ioos:station:WAVCIS:CSI16:1,2009-07-02T09:00:00Z,29.4012,-89.0355,1.0,33.371,11111222 
WAVCIS,ioos:station:WAVCIS:CSI16:1,2009-07-02T09:15:00Z,29.4012,-89.0355,1.0,34.155,11111222 
WAVCIS,ioos:station:WAVCIS:CSI16:1,2009-07-02T09:30:00Z,29.4012,-89.0355,1.0,34.058,11111222 
WAVCIS,ioos:station:WAVCIS:CSI16:1,2009-07-02T09:45:00Z,29.4012,-89.0355,1.0,34.039,11111222 
WAVCIS,ioos:station:WAVCIS:CSI16:1,2009-07-02T10:00:00Z,29.4012,-89.0355,1.0,34.461,11111222 
WAVCIS,ioos:station:WAVCIS:CSI16:1,2009-07-02T10:15:00Z,29.4012,-89.0355,1.0,34.605,11111222 
WAVCIS,ioos:station:WAVCIS:CSI16:1,2009-07-02T10:30:00Z,29.4012,-89.0355,1.0,34.127,11111222 
WAVCIS,ioos:station:WAVCIS:CSI16:1,2009-07-02T10:45:00Z,29.4012,-89.0355,1.0,34.334,11111222 
WAVCIS,ioos:station:WAVCIS:CSI16:1,2009-07-02T11:00:00Z,29.4012,-89.0355,1.0,34.515,11111222 
WAVCIS,ioos:station:WAVCIS:CSI16:1,2009-07-02T11:15:00Z,29.4012,-89.0355,1.0,34.307,11111222 
WAVCIS,ioos:station:WAVCIS:CSI16:1,2009-07-02T11:30:00Z,29.4012,-89.0355,1.0,34.261,11111222 
WAVCIS,ioos:station:WAVCIS:CSI16:1,2009-07-02T11:45:00Z,29.4012,-89.0355,1.0,34.089,11111222 
WAVCIS,ioos:station:WAVCIS:CSI16:1,2009-07-02T12:00:00Z,29.4012,-89.0355,1.0,34.036,11111222 
WAVCIS,ioos:station:WAVCIS:CSI16:1,2009-07-02T12:15:00Z,29.4012,-89.0355,1.0,34.32,11111222 
WAVCIS,ioos:station:WAVCIS:CSI16:1,2009-07-02T12:30:00Z,29.4012,-89.0355,1.0,34.008,11111222 
WAVCIS,ioos:station:WAVCIS:CSI16:1,2009-07-02T12:45:00Z,29.4012,-89.0355,1.0,33.419,11111222 
WAVCIS,ioos:station:WAVCIS:CSI16:1,2009-07-02T13:00:00Z,29.4012,-89.0355,1.0,32.175,11111222 
WAVCIS,ioos:station:WAVCIS:CSI16:1,2009-07-02T13:15:00Z,29.4012,-89.0355,1.0,31.876,11111222 
WAVCIS,ioos:station:WAVCIS:CSI16:1,2009-07-02T13:30:00Z,29.4012,-89.0355,1.0,31.861,11111222 
WAVCIS,ioos:station:WAVCIS:CSI16:1,2009-07-02T13:45:00Z,29.4012,-89.0355,1.0,31.783,11111222 
WAVCIS,ioos:station:WAVCIS:CSI16:1,2009-07-02T14:00:00Z,29.4012,-89.0355,1.0,31.16,11111222 
WAVCIS,ioos:station:WAVCIS:CSI16:1,2009-07-02T14:15:00Z,29.4012,-89.0355,1.0,31.569,11111222 
WAVCIS,ioos:station:WAVCIS:CSI16:1,2009-07-02T14:30:00Z,29.4012,-89.0355,1.0,31.884,11111222 
WAVCIS,ioos:station:WAVCIS:CSI16:1,2009-07-02T14:45:00Z,29.4012,-89.0355,1.0,30.471,11111222 
WAVCIS,ioos:station:WAVCIS:CSI16:1,2009-07-02T15:00:00Z,29.4012,-89.0355,1.0,29.521,11111222 
WAVCIS,ioos:station:WAVCIS:CSI16:1,2009-07-02T15:15:00Z,29.4012,-89.0355,1.0,30.138,11111222 
WAVCIS,ioos:station:WAVCIS:CSI16:1,2009-07-02T15:30:00Z,29.4012,-89.0355,1.0,29.788,11111222 
WAVCIS,ioos:station:WAVCIS:CSI16:1,2009-07-02T15:45:00Z,29.4012,-89.0355,1.0,30.973,11111222 
WAVCIS,ioos:station:WAVCIS:CSI16:1,2009-07-02T16:00:00Z,29.4012,-89.0355,1.0,28.986,11111222 
WAVCIS,ioos:station:WAVCIS:CSI16:1,2009-07-02T16:15:00Z,29.4012,-89.0355,1.0,29.643,11111222 
WAVCIS,ioos:station:WAVCIS:CSI16:1,2009-07-02T16:30:00Z,29.4012,-89.0355,1.0,27.658,11111222 
WAVCIS,ioos:station:WAVCIS:CSI16:1,2009-07-02T16:45:00Z,29.4012,-89.0355,1.0,18.965,11111222 
WAVCIS,ioos:station:WAVCIS:CSI16:1,2009-07-02T17:00:00Z,29.4012,-89.0355,1.0,25.247,11111222 
WAVCIS,ioos:station:WAVCIS:CSI16:1,2009-07-02T17:15:00Z,29.4012,-89.0355,1.0,26.734,11111222 
WAVCIS,ioos:station:WAVCIS:CSI16:1,2009-07-02T17:30:00Z,29.4012,-89.0355,1.0,27.194,11111222 
WAVCIS,ioos:station:WAVCIS:CSI16:1,2009-07-02T17:45:00Z,29.4012,-89.0355,1.0,27.411,11111222 
WAVCIS,ioos:station:WAVCIS:CSI16:1,2009-07-02T18:00:00Z,29.4012,-89.0355,1.0,27.051,11111222 
WAVCIS,ioos:station:WAVCIS:CSI16:1,2009-07-02T18:15:00Z,29.4012,-89.0355,1.0,26.716,11111222 
WAVCIS,ioos:station:WAVCIS:CSI16:1,2009-07-02T18:30:00Z,29.4012,-89.0355,1.0,27.377,11111222 
WAVCIS,ioos:station:WAVCIS:CSI16:1,2009-07-02T18:45:00Z,29.4012,-89.0355,1.0,26.854,11111222 
WAVCIS,ioos:station:WAVCIS:CSI16:1,2009-07-02T19:00:00Z,29.4012,-89.0355,1.0,26.573,11111222 
WAVCIS,ioos:station:WAVCIS:CSI16:1,2009-07-02T19:15:00Z,29.4012,-89.0355,1.0,25.823,11111222 
WAVCIS,ioos:station:WAVCIS:CSI16:1,2009-07-02T19:30:00Z,29.4012,-89.0355,1.0,25.844,11111222 
WAVCIS,ioos:station:WAVCIS:CSI16:1,2009-07-02T19:45:00Z,29.4012,-89.0355,1.0,21.964,11111222 
WAVCIS,ioos:station:WAVCIS:CSI16:1,2009-07-02T20:00:00Z,29.4012,-89.0355,1.0,21.336,11111222 
WAVCIS,ioos:station:WAVCIS:CSI16:1,2009-07-02T20:15:00Z,29.4012,-89.0355,1.0,20.255,11111222 
WAVCIS,ioos:station:WAVCIS:CSI16:1,2009-07-02T20:30:00Z,29.4012,-89.0355,1.0,17.096,11111222 
WAVCIS,ioos:station:WAVCIS:CSI16:1,2009-07-02T20:45:00Z,29.4012,-89.0355,1.0,17.439,11111222 
WAVCIS,ioos:station:WAVCIS:CSI16:1,2009-07-02T21:00:00Z,29.4012,-89.0355,1.0,18.371,11111222 
WAVCIS,ioos:station:WAVCIS:CSI16:1,2009-07-02T21:15:00Z,29.4012,-89.0355,1.0,19.164,11111222 
WAVCIS,ioos:station:WAVCIS:CSI16:1,2009-07-02T21:30:00Z,29.4012,-89.0355,1.0,20.452,11111222 
WAVCIS,ioos:station:WAVCIS:CSI16:1,2009-07-02T21:45:00Z,29.4012,-89.0355,1.0,21.111,11111222 
WAVCIS,ioos:station:WAVCIS:CSI16:1,2009-07-02T22:00:00Z,29.4012,-89.0355,1.0,20.993,11111222 
WAVCIS,ioos:station:WAVCIS:CSI16:1,2009-07-02T22:15:00Z,29.4012,-89.0355,1.0,21.529,11111222 
WAVCIS,ioos:station:WAVCIS:CSI16:1,2009-07-02T22:30:00Z,29.4012,-89.0355,1.0,21.095,11111222 
WAVCIS,ioos:station:WAVCIS:CSI16:1,2009-07-02T22:45:00Z,29.4012,-89.0355,1.0,20.826,11111222 
WAVCIS,ioos:station:WAVCIS:CSI16:1,2009-07-02T23:00:00Z,29.4012,-89.0355,1.0,23.859,11111222 
WAVCIS,ioos:station:WAVCIS:CSI16:1,2009-07-02T23:15:00Z,29.4012,-89.0355,1.0,25.774,11111222 
WAVCIS,ioos:station:WAVCIS:CSI16:1,2009-07-02T23:30:00Z,29.4012,-89.0355,1.0,27.415,11111222 
WAVCIS,ioos:station:WAVCIS:CSI16:1,2009-07-02T23:45:00Z,29.4012,-89.0355,1.0,27.332,11111222 
WAVCIS,ioos:station:WAVCIS:CSI16:1,2009-07-03T00:00:00Z,29.4012,-89.0355,1.0,28.112,11111222 
WAVCIS,ioos:station:WAVCIS:CSI16:1,2009-07-03T00:15:00Z,29.4012,-89.0355,1.0,27.3,11111222 
WAVCIS,ioos:station:WAVCIS:CSI16:1,2009-07-03T00:30:00Z,29.4012,-89.0355,1.0,27.869,11111222 
WAVCIS,ioos:station:WAVCIS:CSI16:1,2009-07-03T00:45:00Z,29.4012,-89.0355,1.0,28.253,11111222 
WAVCIS,ioos:station:WAVCIS:CSI16:1,2009-07-03T01:00:00Z,29.4012,-89.0355,1.0,22.118,11111222 
WAVCIS,ioos:station:WAVCIS:CSI16:1,2009-07-03T01:15:00Z,29.4012,-89.0355,1.0,27.198,11111222 
WAVCIS,ioos:station:WAVCIS:CSI16:1,2009-07-03T01:30:00Z,29.4012,-89.0355,1.0,28.213,11111222 
WAVCIS,ioos:station:WAVCIS:CSI16:1,2009-07-03T01:45:00Z,29.4012,-89.0355,1.0,26.246,11111222 
WAVCIS,ioos:station:WAVCIS:CSI16:1,2009-07-03T02:00:00Z,29.4012,-89.0355,1.0,28.753,11111222 
WAVCIS,ioos:station:WAVCIS:CSI16:1,2009-07-03T02:15:00Z,29.4012,-89.0355,1.0,25.518,11111222 
WAVCIS,ioos:station:WAVCIS:CSI16:1,2009-07-03T02:30:00Z,29.4012,-89.0355,1.0,25.372,11111222 
WAVCIS,ioos:station:WAVCIS:CSI16:1,2009-07-03T02:45:00Z,29.4012,-89.0355,1.0,25.304,11111222 
WAVCIS,ioos:station:WAVCIS:CSI16:1,2009-07-03T03:00:00Z,29.4012,-89.0355,1.0,24.019,11111222 
WAVCIS,ioos:station:WAVCIS:CSI16:1,2009-07-03T03:15:00Z,29.4012,-89.0355,1.0,23.532,11111222 
WAVCIS,ioos:station:WAVCIS:CSI16:1,2009-07-03T03:30:00Z,29.4012,-89.0355,1.0,24.426,11111222 
WAVCIS,ioos:station:WAVCIS:CSI16:1,2009-07-03T03:45:00Z,29.4012,-89.0355,1.0,24.659,11111222 
WAVCIS,ioos:station:WAVCIS:CSI16:1,2009-07-03T04:00:00Z,29.4012,-89.0355,1.0,24.579,11111222 
WAVCIS,ioos:station:WAVCIS:CSI16:1,2009-07-03T04:15:00Z,29.4012,-89.0355,1.0,24.895,11111222 
WAVCIS,ioos:station:WAVCIS:CSI16:1,2009-07-03T04:30:00Z,29.4012,-89.0355,1.0,25.247,11111222 
WAVCIS,ioos:station:WAVCIS:CSI16:1,2009-07-03T04:45:00Z,29.4012,-89.0355,1.0,25.847,11111222 
WAVCIS,ioos:station:WAVCIS:CSI16:1,2009-07-03T05:00:00Z,29.4012,-89.0355,1.0,27.073,11111222 
WAVCIS,ioos:station:WAVCIS:CSI16:1,2009-07-03T05:15:00Z,29.4012,-89.0355,1.0,28.003,11111222 
WAVCIS,ioos:station:WAVCIS:CSI16:1,2009-07-03T05:30:00Z,29.4012,-89.0355,1.0,27.405,11111222 
WAVCIS,ioos:station:WAVCIS:CSI16:1,2009-07-03T05:45:00Z,29.4012,-89.0355,1.0,28.71,11111222 
WAVCIS,ioos:station:WAVCIS:CSI16:1,2009-07-03T06:00:00Z,29.4012,-89.0355,1.0,29.606,11111222 
WAVCIS,ioos:station:WAVCIS:CSI16:1,2009-07-03T06:15:00Z,29.4012,-89.0355,1.0,29.549,11111222 
WAVCIS,ioos:station:WAVCIS:CSI16:1,2009-07-03T06:30:00Z,29.4012,-89.0355,1.0,26.284,11111222 
WAVCIS,ioos:station:WAVCIS:CSI16:1,2009-07-03T06:45:00Z,29.4012,-89.0355,1.0,29.199,11111222 
WAVCIS,ioos:station:WAVCIS:CSI16:1,2009-07-03T07:00:00Z,29.4012,-89.0355,1.0,28.428,11111222 
WAVCIS,ioos:station:WAVCIS:CSI16:1,2009-07-03T07:15:00Z,29.4012,-89.0355,1.0,29.185,11111222 
WAVCIS,ioos:station:WAVCIS:CSI16:1,2009-07-03T07:30:00Z,29.4012,-89.0355,1.0,28.32,11111222 
WAVCIS,ioos:station:WAVCIS:CSI16:1,2009-07-03T07:45:00Z,29.4012,-89.0355,1.0,30.072,11111222 
WAVCIS,ioos:station:WAVCIS:CSI16:1,2009-07-03T08:00:00Z,29.4012,-89.0355,1.0,29.067,11111222 
WAVCIS,ioos:station:WAVCIS:CSI16:1,2009-07-03T08:15:00Z,29.4012,-89.0355,1.0,28.389,11111222 
WAVCIS,ioos:station:WAVCIS:CSI16:1,2009-07-03T08:30:00Z,29.4012,-89.0355,1.0,29.849,11111222 
WAVCIS,ioos:station:WAVCIS:CSI16:1,2009-07-03T08:45:00Z,29.4012,-89.0355,1.0,31.471,11111222 
WAVCIS,ioos:station:WAVCIS:CSI16:1,2009-07-03T09:00:00Z,29.4012,-89.0355,1.0,31.222,11111222 
WAVCIS,ioos:station:WAVCIS:CSI16:1,2009-07-03T09:15:00Z,29.4012,-89.0355,1.0,32.167,11111222 
WAVCIS,ioos:station:WAVCIS:CSI16:1,2009-07-03T09:30:00Z,29.4012,-89.0355,1.0,32.466,11111222 
WAVCIS,ioos:station:WAVCIS:CSI16:1,2009-07-03T09:45:00Z,29.4012,-89.0355,1.0,33.142,11111222 
WAVCIS,ioos:station:WAVCIS:CSI16:1,2009-07-03T10:00:00Z,29.4012,-89.0355,1.0,33.625,11111222 
WAVCIS,ioos:station:WAVCIS:CSI16:1,2009-07-03T10:15:00Z,29.4012,-89.0355,1.0,33.718,11111222 
WAVCIS,ioos:station:WAVCIS:CSI16:1,2009-07-03T10:30:00Z,29.4012,-89.0355,1.0,34.085,11111222 
WAVCIS,ioos:station:WAVCIS:CSI16:1,2009-07-03T10:45:00Z,29.4012,-89.0355,1.0,34.466,11111222 
WAVCIS,ioos:station:WAVCIS:CSI16:1,2009-07-03T11:00:00Z,29.4012,-89.0355,1.0,34.418,11111222 
WAVCIS,ioos:station:WAVCIS:CSI16:1,2009-07-03T11:15:00Z,29.4012,-89.0355,1.0,34.389,11111222 
WAVCIS,ioos:station:WAVCIS:CSI16:1,2009-07-03T11:30:00Z,29.4012,-89.0355,1.0,34.202,11111222 
WAVCIS,ioos:station:WAVCIS:CSI16:1,2009-07-03T11:45:00Z,29.4012,-89.0355,1.0,33.987,11111222 
WAVCIS,ioos:station:WAVCIS:CSI16:1,2009-07-03T12:00:00Z,29.4012,-89.0355,1.0,33.867,11111222 
WAVCIS,ioos:station:WAVCIS:CSI16:1,2009-07-03T12:15:00Z,29.4012,-89.0355,1.0,33.607,11111222 
WAVCIS,ioos:station:WAVCIS:CSI16:1,2009-07-03T12:30:00Z,29.4012,-89.0355,1.0,32.04,11111222 
WAVCIS,ioos:station:WAVCIS:CSI16:1,2009-07-03T12:45:00Z,29.4012,-89.0355,1.0,34.16,11111222 
WAVCIS,ioos:station:WAVCIS:CSI16:1,2009-07-03T13:00:00Z,29.4012,-89.0355,1.0,31.984,11111222 
WAVCIS,ioos:station:WAVCIS:CSI16:1,2009-07-03T13:15:00Z,29.4012,-89.0355,1.0,33.389,11111222 
WAVCIS,ioos:station:WAVCIS:CSI16:1,2009-07-03T13:30:00Z,29.4012,-89.0355,1.0,33.645,11111222 
WAVCIS,ioos:station:WAVCIS:CSI16:1,2009-07-03T13:45:00Z,29.4012,-89.0355,1.0,33.596,11111222 
WAVCIS,ioos:station:WAVCIS:CSI16:1,2009-07-03T14:00:00Z,29.4012,-89.0355,1.0,33.436,11111222 
WAVCIS,ioos:station:WAVCIS:CSI16:1,2009-07-03T14:15:00Z,29.4012,-89.0355,1.0,33.484,11111222 
WAVCIS,ioos:station:WAVCIS:CSI16:1,2009-07-03T14:30:00Z,29.4012,-89.0355,1.0,33.612,11111222 
WAVCIS,ioos:station:WAVCIS:CSI16:1,2009-07-03T14:45:00Z,29.4012,-89.0355,1.0,32.941,11111222 
WAVCIS,ioos:station:WAVCIS:CSI16:1,2009-07-03T15:00:00Z,29.4012,-89.0355,1.0,33.475,11111222 
WAVCIS,ioos:station:WAVCIS:CSI16:1,2009-07-03T15:15:00Z,29.4012,-89.0355,1.0,33.419,11111222 